Regional Weather Roundup
Issued by NWS Newport/Morehead, NC

Current Version | Previous Version | Graphics & Text | Print | Product List | Glossary Off
Versions: 1 2 3 4 5 6 7 8 9 10 11 12 13 14 15 16 17 18 19 20 21 22 23 24 25 26 27 28 29 30 31 32 33 34 35 36 37 38 39 40 41 42 43 44 45 46 47 48 49 50

000
ASUS42 KMHX 201225
RWRMHX
WEATHER ROUNDUP FOR EASTERN NORTH CAROLINA
NATIONAL WEATHER SERVICE NEWPORT/MOREHEAD CITY NC
700 AM EST MON NOV 20 2017

NOTE: "FAIR" INDICATES FEW OR NO CLOUDS BELOW 12,000 FEET
WITH NO SIGNIFICANT WEATHER AND/OR OBSTRUCTIONS TO VISIBILITY

NCZ015>017-031-032-045>047-102-103-201300-
NORTH COAST

CITY           SKY/WX    TMP DP  RH WIND       PRES   REMARKS
EDENTON        CLEAR     39  32  75 CALM      30.21R
ELIZABETH CITY CLEAR     35  29  78 W8        30.19R
KITTY HAWK     SUNNY     42  31  64 CALM      30.16R
MANTEO         CLEAR     44  32  62 NW8       30.18R

$$

NCZ045>047-081-094-103-104-201300-
CENTRAL COAST

CITY           SKY/WX    TMP DP  RH WIND       PRES   REMARKS
FRISCO         CLEAR     46  34  62 NW8       30.17R

$$

NCZ095-097-098-100-101-201300-
SOUTHERN COAST

CITY           SKY/WX    TMP DP  RH WIND       PRES   REMARKS
BEAUFORT       CLEAR     38  33  82 NW7       30.20R
CEDAR ISLAND   NOT AVBL
JACKSONVILLE   NOT AVBL
PINEY ISLAND   NOT AVBL
WILMINGTON     CLEAR     33  31  92 CALM      30.22R


$$

NCZ011>013-027>030-043-044-078>080-089-090>093-098-201300-
COASTAL PLAIN

CITY           SKY/WX    TMP DP  RH WIND       PRES   REMARKS
AHOSKIE        CLEAR     30  27  88 CALM      30.21R
CLINTON        CLEAR     31  29  96 CALM      30.23R
ELIZABETHTOWN  NOT AVBL
GOLDSBORO      CLEAR     38  26  63 W3        30.20R
GREENVILLE     CLEAR     34  28  80 CALM      30.23R
HAVELOCK       CLEAR     37  29  72 NW7       30.22R
KENANSVILLE    CLEAR     30  25  80 CALM      30.22R
KINSTON        CLEAR     30  28  93 CALM      30.22R
NEW BERN       PTCLDY    33  28  81 NW5       30.22R
RICHLANDS      CLEAR     27  25  92 W3        30.23R
ROCKY MOUNT    CLEAR     33  28  81 SW3       30.22R
WASHINGTON     CLEAR     34  28  76 N6        30.22R
WHITEVILLE     CLEAR     33  30  91 CALM      30.23R

$$

AMZ130-135-150-152-154-156-158-170-250-252-270-ANZ085-086-088-633-658-670-201300-
MARINE OBSERVATIONS

STATION/POSITION TIME  TEMP    WIND        PRES    WAVE   SWELL
                       AIR SEA DIR/SP/G            HT/PER HT/PER
                 (UTC) (F)     (DEG/KT/KT) (MB)    (FT/S) (FT/S)
CHESAPEAKE LIGHT NOT AVBL
64 E VA BEACH    1150   51 60  300/ 17/ 21 1020.1    6/ 7   2/ 9
DUCK             1200   41 60  310/ 13/ 16 1021.2
2 E DUCK         1200      61                N/A     3/ 6
OREGON INLET     1200   44 55  290/  8/ 11 1021.7
13E OREGON INLT  1148      62                N/A     5/ 7   5/ 7
HATTERAS CG      1200   47 59  330/ 17/ 19 1021.4
DIAMOND BUOY     1210   50 66  330/ 16/ 19 1021.9
CAPE LOOKOUT     1200          340/ 12/ 14 1022.7
BEAUFORT LAB     1200   41 59  320/  3/  7 1022.7
30 SE NEW RVR IN 1208   51 69   10/ 14/ 19 1022.5
30 SE NEW RVR IN 1200      69                N/A     4/ 5
27 SE WRIGHTSVLE 1208   51 68  360/ 16/ 29 1022.3
5 SE WRIGHTSVLE  1208   47 64  350/ 12/ 16 1022.5
225 S CAPE HAT   1150   65 76  360/ 16/ 21 1019.3    7/ 7
41 SE CHARLESTON 1210   57 73   40/ 14/ 19 1021.9

$$




USA.gov is the U.S. government's official web portal to all federal, state and local government web resources and services.